Bradford, PA

2:44 AM EDT on May 27, 2017 (GMT -0400)
Bradford Regional

Weather History for KBFD - March, 2013

Change the Weather History Date:

Friday, March 8, 2013

  Actual Average Record
Temperature  
Mean Temperature 32 °F 29 °F  
Max Temperature 37 °F 38 °F 74 °F (2000)
Min Temperature 26 °F 19 °F -15 °F (1999)
Degree Days  
Heating Degree Days 33 31  
Month to date heating degree days 255  
Since 1 July heating degree days 5825  
Cooling Degree Days 0 0  
Month to date cooling degree days 0  
Year to date cooling degree days 0  
Moisture  
Dew Point 20 °F    
Average Humidity 66    
Maximum Humidity 82    
Minimum Humidity 48    
Precipitation  
Precipitation 0.00 in 0.10 in 1.12 in (2009)
Month to date precipitation 0.79  
Year to date precipitation 6.43  
Sea Level Pressure  
Sea Level Pressure 30.28 in    
Wind  
Wind Speed 12 mph (NNW)    
Max Wind Speed 20 mph    
Max Gust Speed 28 mph    
Visibility 9 miles    
Events Snow    
T = Trace of Precipitation, MM = Missing Value Source: NWS Daily Summary

Daily Weather History Graph

Daily Weather History Graph

Search for Another Location

Airport or City:

Trip Planner

Search our weather history database for the weather conditions in past years. The results will help you decide how hot, cold, wet, or windy it might be!

Date:

Astronomy

Mar. 08, 2013 Rise Set
Actual Time 6:37 AM EST 6:13 PM EST
Civil Twilight 6:09 AM EST 6:41 PM EST
Nautical Twilight 5:37 AM EST 7:13 PM EST
Astronomical Twilight 5:05 AM EST 7:45 PM EST
Moon 4:23 AM EST (3/8) 3:04 PM EST (3/8)
Length of Visible Light 12h 31m
Length of Day
11h 35m
Waning Crescent, 12% of the Moon is Illuminated
Mar 8
Waning Crescent
Mar 11
New
Mar 19
First Quarter
Mar 27
Full
Apr 3
Last Quarter

Hourly Weather History & Observations

Time (EST) Temp. Windchill Dew Point Humidity Pressure Visibility Wind Dir Wind Speed Gust Speed Precip Events Conditions
12:01 AM 28.0 °F 18.1 °F 23.0 °F 81% 30.16 in 10.0 mi NNW 11.5 mph - N/A   Mostly Cloudy
12:53 AM 28.9 °F 21.9 °F 23.0 °F 78% 30.22 in 10.0 mi NW 6.9 mph - N/A   Overcast
1:53 AM 28.9 °F 19.2 °F 24.1 °F 82% 30.22 in 10.0 mi NNW 11.5 mph - 0.00 in   Overcast
2:35 AM 28.9 °F 16.1 °F 21.0 °F 72% 30.15 in 8.0 mi NNW 19.6 mph 27.6 mph 0.00 in   Overcast
2:53 AM 28.9 °F 18.6 °F 21.9 °F 75% 30.21 in 3.0 mi NNW 12.7 mph - 0.00 in Snow Light Snow
3:53 AM 28.9 °F 19.2 °F 19.9 °F 69% 30.23 in 10.0 mi North 11.5 mph 25.3 mph 0.00 in   Overcast
4:37 AM 28.0 °F 17.5 °F 19.9 °F 72% 30.17 in 7.0 mi North 12.7 mph 23.0 mph 0.00 in   Overcast
4:48 AM 28.4 °F 16.6 °F 21.2 °F 74% 30.18 in 7.0 mi North 16.1 mph 21.9 mph 0.00 in Snow Light Snow
4:53 AM 28.0 °F 17.0 °F 21.0 °F 75% 30.25 in 6.0 mi North 13.8 mph 23.0 mph 0.00 in Snow Light Snow
5:16 AM 28.0 °F 18.6 °F 21.0 °F 75% 30.19 in 4.0 mi North 10.4 mph - 0.00 in Snow Light Snow
5:53 AM 28.0 °F 16.5 °F 19.0 °F 69% 30.27 in 10.0 mi North 15.0 mph 21.9 mph 0.00 in   Overcast
6:00 AM 28.0 °F 16.5 °F 19.0 °F 69% 30.21 in 10.0 mi North 15.0 mph - N/A   Overcast
6:13 AM 28.0 °F 17.5 °F 19.0 °F 69% 30.22 in 10.0 mi North 12.7 mph 20.7 mph N/A   Overcast
6:53 AM 28.0 °F 17.0 °F 19.0 °F 69% 30.30 in 10.0 mi North 13.8 mph - N/A   Overcast
7:15 AM 28.0 °F 16.5 °F 19.0 °F 69% 30.24 in 10.0 mi North 15.0 mph - N/A   Overcast
7:25 AM 28.0 °F 18.1 °F 19.0 °F 69% 30.24 in 10.0 mi North 11.5 mph - N/A   Overcast
7:53 AM 28.0 °F 17.5 °F 19.9 °F 72% 30.31 in 10.0 mi North 12.7 mph - N/A   Overcast
8:39 AM 28.9 °F 19.2 °F 19.0 °F 67% 30.25 in 10.0 mi North 11.5 mph 23.0 mph N/A   Overcast
8:53 AM 28.9 °F 18.6 °F 18.0 °F 64% 30.32 in 10.0 mi North 12.7 mph - N/A   Overcast
10:53 AM 30.0 °F 19.1 °F 18.0 °F 61% 30.35 in 10.0 mi North 15.0 mph 21.9 mph N/A   Overcast
11:34 AM 32.0 °F 22.1 °F 18.0 °F 56% 30.27 in 10.0 mi North 13.8 mph - N/A   Partly Cloudy
11:53 AM 32.0 °F 21.2 °F 17.1 °F 54% 30.34 in 10.0 mi NNE 16.1 mph 21.9 mph N/A   Clear
12:53 PM 34.0 °F 24.6 °F 18.0 °F 52% 30.32 in 10.0 mi North 13.8 mph 18.4 mph N/A   Clear
1:53 PM 35.1 °F 26.4 °F 18.0 °F 50% 30.31 in 10.0 mi NNW 12.7 mph 18.4 mph N/A   Clear
2:53 PM 37.0 °F 30.4 °F 19.0 °F 48% 30.32 in 10.0 mi NNW 9.2 mph - N/A   Clear
3:53 PM 37.0 °F 29.3 °F 19.0 °F 48% 30.32 in 10.0 mi North 11.5 mph - N/A   Clear
4:53 PM 37.0 °F 28.1 °F 19.0 °F 48% 30.32 in 10.0 mi NNW 15.0 mph - N/A   Clear
5:53 PM 35.1 °F 26.9 °F 19.0 °F 52% 30.35 in 10.0 mi NNW 11.5 mph - N/A   Clear
6:53 PM 32.0 °F 23.6 °F 19.0 °F 59% 30.38 in 10.0 mi NNW 10.4 mph - N/A   Clear
7:53 PM 30.9 °F 25.2 °F 19.0 °F 61% 30.39 in 10.0 mi NNW 5.8 mph - N/A   Clear
8:53 PM 28.9 °F 22.8 °F 19.0 °F 67% 30.39 in 10.0 mi NNW 5.8 mph - N/A   Clear
9:53 PM 28.0 °F 24.2 °F 19.0 °F 69% 30.39 in 10.0 mi NNW 3.5 mph - N/A   Clear
10:53 PM 27.0 °F 21.6 °F 19.0 °F 72% 30.38 in 10.0 mi NW 4.6 mph - N/A   Clear
11:53 PM 26.1 °F 20.5 °F 19.0 °F 75% 30.38 in 10.0 mi NW 4.6 mph - N/A   Clear